Weather History for Parsons, KS

Change the Weather History Date:

Wednesday, September 19, 2012

  Actual Average Record
Temperature  
Mean Temperature 68 °F -  
Max Temperature 82 °F 80 °F 100 °F (1954)
Min Temperature 53 °F 58 °F 38 °F (1991)
Cooling Degree Days 2    
Growing Degree Days 18 (Base 50)    
Moisture  
Dew Point 49 °F    
Average Humidity 55    
Maximum Humidity 80    
Minimum Humidity 32    
Precipitation  
Precipitation 0.00 in - - ()
Sea Level Pressure  
Sea Level Pressure 30.01 in    
Wind  
Wind Speed 7 mph (South)    
Max Wind Speed 17 mph    
Max Gust Speed 26 mph    
Visibility 10 miles    
Events      
Averages and records for this station are not official NWS values.
T = Trace of Precipitation, MM = Missing Value Source: NWS Daily Summary

Daily Weather History Graph

Daily Weather History Graph

Search for Another Location

Airport:

Trip Planner

Search our weather history database for the weather conditions in past years. The results will help you decide how hot, cold, wet, or windy it might be!

Date:

Astronomy

Sep. 19, 2012 Rise Set
Actual Time 7:07 AM CDT 7:22 PM CDT
Civil Twilight 6:41 AM CDT 7:48 PM CDT
Nautical Twilight 6:11 AM CDT 8:19 PM CDT
Astronomical Twilight 5:40 AM CDT 8:50 PM CDT
Moon 11:12 AM CDT (9/19) 9:39 PM CDT (9/19)
Length of Visible Light 13h 07m
Length of Day
12h 14m
Waxing Crescent, 17% of the Moon is Illuminated
Sep 19
Waxing Crescent
Sep 22
First Quarter
Sep 29
Full
Oct 8
Last Quarter
Oct 15
New

Hourly Weather History & Observations

Time (CDT) Temp. Dew Point Humidity Pressure Visibility Wind Dir Wind Speed Gust Speed Precip Events Conditions
12:52 AM 57.0 °F 46.9 °F 69% 30.05 in 10.0 mi South 3.5 mph - N/A   Clear
2:52 AM 54.0 °F 46.9 °F 77% 30.05 in 10.0 mi Calm Calm - N/A   Clear
4:52 AM 54.0 °F 48.0 °F 80% 30.04 in 10.0 mi South 3.5 mph - N/A   Clear
5:52 AM 53.1 °F 46.9 °F 80% 30.05 in 10.0 mi South 3.5 mph - N/A   Clear
6:52 AM 53.1 °F 46.9 °F 80% 30.06 in 10.0 mi South 3.5 mph - N/A   Clear
7:52 AM 55.9 °F 48.9 °F 77% 30.07 in 10.0 mi South 5.8 mph - N/A   Clear
8:52 AM 62.1 °F 50.0 °F 65% 30.07 in 10.0 mi South 9.2 mph - N/A   Clear
9:52 AM 66.9 °F 51.1 °F 57% 30.07 in 10.0 mi South 11.5 mph - N/A   Clear
10:52 AM 72.0 °F 51.1 °F 48% 30.06 in 10.0 mi South 15.0 mph 21.9 mph N/A   Clear
11:52 AM 75.0 °F 48.9 °F 40% 30.04 in 10.0 mi South 16.1 mph 21.9 mph N/A   Clear
12:52 PM 78.1 °F 48.0 °F 35% 30.02 in 10.0 mi South 17.3 mph 26.5 mph N/A   Clear
1:52 PM 80.1 °F 48.0 °F 32% 30.00 in 10.0 mi South 15.0 mph 23.0 mph N/A   Clear
3:52 PM 82.9 °F 50.0 °F 32% 29.95 in 10.0 mi SSW 15.0 mph 25.3 mph N/A   Clear
4:52 PM 82.9 °F 51.1 °F 33% 29.94 in 10.0 mi SSW 15.0 mph 23.0 mph N/A   Clear
6:52 PM 77.0 °F 51.1 °F 40% 29.93 in 10.0 mi South 6.9 mph - N/A   Clear
7:52 PM 73.0 °F 51.1 °F 46% 29.93 in 10.0 mi North - - N/A   Clear
8:52 PM 72.0 °F 50.0 °F 46% 29.93 in 10.0 mi South 5.8 mph - N/A   Clear
9:52 PM 70.0 °F 50.0 °F 49% 29.92 in 10.0 mi South 6.9 mph - N/A   Clear
10:52 PM 69.1 °F 50.0 °F 51% 29.93 in 10.0 mi South 6.9 mph - N/A   Clear